Regional Weather Roundup
Issued by NWS New Orleans/Baton Rouge, LA

Home | Current Version | Previous Version | Text Only | Print | Product List | Glossary On
Versions: 1 2 3 4 5 6 7 8 9 10 11 12 13 14 15 16 17 18 19 20 21 22 23 24 25 26 27 28 29 30 31 32 33 34 35 36 37 38 39 40 41 42 43 44 45 46 47 48 49 50
000
ASUS44 KLIX 231812
RWRLIX
NEW ORLEANS REGIONAL WEATHER ROUNDUP
NATIONAL WEATHER SERVICE NEW ORLEANS LA
1200 PM CST FRI FEB 23 2018

NOTE: "FAIR" INDICATES FEW OR NO CLOUDS BELOW 12,000 FEET WITH NO
      SIGNIFICANT WEATHER AND/OR OBSTRUCTIONS TO VISIBILITY.
      SKY/WX - SKY CONDITION AND SIGNIFICANT WEATHER.
      TMP - AIR TEMPERATURE.     DP    - DEWPOINT TEMPERATURE.
      RH  - RELATIVE HUMIDITY.   PRES  - PRESSURE.
      HI  - HEAT INDEX.          WCI   - WIND CHILL INDEX.

*  THESE STATIONS ARE NOT NWS OR FAA STATIONS AND ARE NOT UNDER
   NWS QUALITY CONTROL.

LAZ038-040-048-061>063-065>067-069-231900-
SOUTHEAST LOUISIANA

CITY           SKY/WX    TMP DP  RH WIND       PRES   REMARKS
N.O. INTL ARPT PTSUNNY   76  73  91 CALM      30.25F
6HR MIN TEMP:  71; 6HR MAX TEMP:  76; 6HR PCP:  0.71;

N.O. LAKEFRONT CLOUDY    73  69  87 SE13      30.25F
6HR MIN TEMP:  71; 6HR MAX TEMP:  82; 6HR PCP: TRACE;

N.O. DOWNTOWN* MOCLDY    77  71  82 S7        30.26F
6HR MIN TEMP:  71; 6HR MAX TEMP:  77; 6HR PCP:  0.05;

RESERVE*       FAIR      80  74  81 S6        30.25F
6HR MIN TEMP:  71; 6HR MAX TEMP:  80; 6HR PCP:  0.17;

SLIDELL        CLOUDY    78  70  76 SE9G21    30.25F
6HR MIN TEMP:  67; 6HR MAX TEMP:  80; 6HR PCP: TRACE;

BATON ROUGE    LGT RAIN  73  70  90 SE7       30.24F FOG
6HR MIN TEMP:  68; 6HR MAX TEMP:  74; 6HR PCP:  0.05;

BOOTHVILLE     PTSUNNY   80  70  71 S8        30.26F
6HR MIN TEMP:  64; 6HR MAX TEMP:  80; 6HR PCP: TRACE;

BELLE CHASSE   PTSUNNY   79  76  90 SE9       30.24F
6HR MIN TEMP:  71; 6HR MAX TEMP:  79; 6HR PCP: TRACE;

BOGALUSA*      CLOUDY    74  69  85 CALM      30.28F
6HR MIN TEMP:  64; 6HR MAX TEMP:  74; 6HR PCP:  0.01;

GALLIANO*      MOCLDY    81  69  68 SE13G20   30.25F
6HR MIN TEMP:  71; 6HR MAX TEMP:  81; 6HR PCP:  0.16;

NEW ROADS*     CLOUDY    75  67  76 SE6       30.25F
6HR MIN TEMP:  68; 6HR MAX TEMP:  78;

GONZALES*      CLOUDY    73  71  94 SW5       30.24F
6HR MIN TEMP:  71; 6HR MAX TEMP:  73; 6HR PCP:  0.17;

HAMMOND*       CLOUDY    70  68  94 S5        30.26F
HOUMA*         PTSUNNY   81  73  78 SE12      30.24F
PORT FOURCHON* CLEAR     79  72  78 S9G17     30.25F

$$

MSZ070-080>082-231900-
SOUTHERN MISSISSIPPI

CITY           SKY/WX    TMP DP  RH WIND       PRES   REMARKS
MCCOMB         RAIN      70  68  93 VRB5      30.27F FOG
6HR MIN TEMP:  69; 6HR MAX TEMP:  70; 6HR PCP:  0.25;

GULFPORT       CLOUDY    76  71  85 SE17G25   30.28F
6HR MIN TEMP:  68; 6HR MAX TEMP:  78;

BILOXI         FAIR      78  70  74 SE14G20   30.29F
6HR MIN TEMP:  70; 6HR MAX TEMP:  79;

PASCAGOULA     CLOUDY    78  65  63 SE9       30.30F
6HR MIN TEMP:  63; 6HR MAX TEMP:  78;

STENNIS ARPT*  CLOUDY    75  70  83 SE10G21   30.28F

$$

COASTAL OBSERVATIONS
LAKE AND NEARSHORE STATIONS

STATION/POSITION TIME  SKY/WX   TEMP    WIND        PRES    WAVE
                                AIR SEA DIR/SP/G            HT/PER
                 (UTC)          (F)     (DEG/KT/KT) (MB)    (FT/S)
WAVELAND YACHT   1736            73 73  130/ 14/ 18 1025.8
GRAND ISLE       1736            75 73  120/  3/  9 1024.9
SOUTHWEST PASS   1736            71 49  150/  7/  9 1025.3
NEW CANAL        1736            71 66  220/  1/  2 1024.7
SHELL BEACH      1736            76 77  120/ 18/ 21 1025.0

OFFSHORE STATIONS

STATION/POSITION TIME  SKY/WX   TEMP    WIND        PRES    WAVE
                                AIR SEA DIR/SP/G            HT/PER
                 (UTC)          (F)     (DEG/KT/KT) (MB)    (FT/S)
64 S DAUPHIN ISL 1750               77  130/ 16/ 19 1025.6    6/ 8

$$





USA.gov is the U.S. government's official web portal to all federal, state and local government web resources and services.